Location: Pilipovskiye Korichintsy
(49.1833°N, 27.4667°E)
Time: 11:11:49
(UTC+00:00)

Cosmos 1741 Rocket - Visible Passes

Search period start: 21 October 2020 00:00
Search period end: 31 October 2020 00:00
Orbit: 761 x 782 km, 74.0° (Epoch: 20 October)

Date Brightness Start Highest point End Pass type
(mag) Time Alt. Az. Time Alt. Az. Time Alt. Az.
21 Oct 5.2 16:51:53 10° NW 16:56:50 43° WSW 17:01:44 10° S visible
22 Oct 4.4 16:15:50 10° NNW 16:21:04 67° WSW 16:26:14 10° S visible
23 Oct 4.0 15:39:54 10° NNW 15:45:12 79° ENE 15:50:25 10° SSE visible
23 Oct 6.9 17:23:29 10° WNW 17:26:39 16° W 17:29:48 10° SW visible
24 Oct 6.3 16:46:48 10° NW 16:51:04 26° W 16:55:18 10° SSW visible
25 Oct 5.5 16:10:31 10° NW 16:15:23 40° WSW 16:20:13 10° S visible
26 Oct 4.6 15:34:25 10° NNW 15:39:38 63° WSW 15:44:46 10° S visible
27 Oct 7.2 16:42:14 10° WNW 16:45:11 15° W 16:48:06 10° SW visible
28 Oct 7.2 04:00:47 10° SE 04:04:10 17° E 04:07:34 10° NE visible
28 Oct 6.6 16:05:27 10° NW 16:09:36 24° W 16:13:43 10° SSW visible
29 Oct 7.8 03:27:42 10° E 03:28:40 10° E 03:29:40 10° E visible
29 Oct 5.8 15:29:08 10° NW 15:33:56 38° WSW 15:38:42 10° S visible
